TimeICT,TemperatureF,Dew PointF,Humidity,Sea Level PressureIn,VisibilityMPH,Wind Direction,Wind SpeedMPH,Gust SpeedMPH,PrecipitationIn,Events,Conditions,WindDirDegrees,DateUTC
12:00 AM,77.0,75.2,94,29.86,5.6,East,3.5,-,N/A,,Mostly Cloudy,80,2013-08-16 17:00:00
12:30 AM,77.0,73.4,89,29.83,5.6,ESE,2.3,-,N/A,,Mostly Cloudy,120,2013-08-16 17:30:00
1:00 AM,77.0,73.4,89,29.83,5.6,SSW,2.3,-,N/A,,Mostly Cloudy,210,2013-08-16 18:00:00
1:30 AM,75.2,73.4,94,29.83,5.0,South,4.6,-,N/A,,Mostly Cloudy,180,2013-08-16 18:30:00
2:00 AM,75.2,73.4,94,29.80,5.0,Calm,Calm,-,N/A,,Mostly Cloudy,0,2013-08-16 19:00:00
2:30 AM,75.2,73.4,94,29.80,3.7,Calm,Calm,-,N/A,,Mostly Cloudy,0,2013-08-16 19:30:00
3:00 AM,75.2,73.4,94,29.80,3.1,Calm,Calm,-,N/A,,Mostly Cloudy,0,2013-08-16 20:00:00
3:30 AM,75.2,73.4,94,29.80,3.1,Calm,Calm,-,N/A,,Mostly Cloudy,0,2013-08-16 20:30:00
4:00 AM,73.4,71.6,94,29.80,4.3,Calm,Calm,-,N/A,,Mostly Cloudy,0,2013-08-16 21:00:00
4:30 AM,73.4,73.4,100,29.80,4.3,Calm,Calm,-,N/A,,Mostly Cloudy,0,2013-08-16 21:30:00
5:00 AM,73.4,71.6,94,29.80,4.3,Calm,Calm,-,N/A,,Mostly Cloudy,0,2013-08-16 22:00:00
5:30 AM,73.4,71.6,94,29.80,3.7,Calm,Calm,-,N/A,,Mostly Cloudy,0,2013-08-16 22:30:00
6:00 AM,73.4,71.6,94,29.80,4.3,Calm,Calm,-,N/A,,Mostly Cloudy,0,2013-08-16 23:00:00
6:30 AM,73.4,71.6,94,29.80,0.5,Calm,Calm,-,N/A,Fog,Fog,0,2013-08-16 23:30:00
7:00 AM,74,73,94,29.81,4,Calm,Calm,,,Fog,Light Fog,,2013-08-17 00:00:00
7:00 AM,75.2,73.4,94,29.83,4.3,Calm,Calm,-,N/A,,Mostly Cloudy,0,2013-08-17 00:00:00
7:30 AM,75.2,75.2,100,29.83,5.6,SSE,3.5,-,N/A,,Mostly Cloudy,160,2013-08-17 00:30:00
8:00 AM,78.8,77.0,94,29.86,6.2,Calm,Calm,-,N/A,,Mostly Cloudy,0,2013-08-17 01:00:00
8:30 AM,80.6,77.0,89,29.86,6.2,South,3.5,-,N/A,,Scattered Clouds,180,2013-08-17 01:30:00
9:00 AM,84.2,75.2,74,29.89,6.2,Calm,Calm,-,N/A,,Scattered Clouds,0,2013-08-17 02:00:00
9:30 AM,86.0,73.4,66,29.89,6.2,SSE,3.5,-,N/A,,Scattered Clouds,160,2013-08-17 02:30:00
10:00 AM,86.0,71.6,62,29.86,6.2,West,3.5,-,N/A,,Scattered Clouds,260,2013-08-17 03:00:00
10:30 AM,87.8,69.8,55,29.86,6.2,West,4.6,-,N/A,,Scattered Clouds,260,2013-08-17 03:30:00
11:00 AM,89.6,71.6,55,29.86,6.2,WSW,5.8,-,N/A,,Scattered Clouds,250,2013-08-17 04:00:00
11:30 AM,87.8,69.8,55,29.83,6.2,NW,5.8,-,N/A,,Scattered Clouds,320,2013-08-17 04:30:00
12:00 PM,89.6,69.8,52,29.83,6.2,NW,4.6,-,N/A,,Scattered Clouds,310,2013-08-17 05:00:00
12:30 PM,89.6,69.8,52,29.83,6.2,SSW,6.9,-,N/A,,Scattered Clouds,210,2013-08-17 05:30:00
1:00 PM,92,71,42,29.82,6,WNW,5.8,,,,Scattered Clouds,300,2013-08-17 06:00:00
1:00 PM,91.4,71.6,52,29.80,6.2,WNW,5.8,-,N/A,,Scattered Clouds,300,2013-08-17 06:00:00
1:30 PM,91.4,71.6,52,29.80,6.2,NNW,4.6,-,N/A,,Scattered Clouds,330,2013-08-17 06:30:00
2:00 PM,91.4,71.6,52,29.77,6.2,WSW,5.8,-,N/A,,Mostly Cloudy,240,2013-08-17 07:00:00
2:30 PM,89.6,71.6,55,29.74,6.2,SW,5.8,-,N/A,,Mostly Cloudy,230,2013-08-17 07:30:00
3:00 PM,91.4,71.6,52,29.74,6.2,NW,4.6,-,N/A,,Mostly Cloudy,310,2013-08-17 08:00:00
3:30 PM,91.4,71.6,52,29.74,6.2,SW,6.9,-,N/A,,Mostly Cloudy,220,2013-08-17 08:30:00
4:00 PM,89.6,71.6,55,29.74,6.2,West,6.9,-,N/A,,Mostly Cloudy,260,2013-08-17 09:00:00
4:30 PM,91.4,73.4,55,29.71,6.2,SW,10.4,-,N/A,,Mostly Cloudy,220,2013-08-17 09:30:00
5:00 PM,91.4,69.8,49,29.71,6.2,WSW,6.9,-,N/A,,Mostly Cloudy,250,2013-08-17 10:00:00
5:30 PM,89.6,68.0,49,29.74,6.2,West,8.1,-,N/A,,Mostly Cloudy,270,2013-08-17 10:30:00
6:00 PM,87.8,69.8,55,29.74,6.2,NW,3.5,-,N/A,,Mostly Cloudy,310,2013-08-17 11:00:00
6:30 PM,82.4,75.2,79,29.77,6.2,Calm,Calm,-,N/A,,Mostly Cloudy,0,2013-08-17 11:30:00
7:00 PM,81,74,74,29.78,6,Calm,Calm,,,,Scattered Clouds,,2013-08-17 12:00:00
7:00 PM,80.6,73.4,79,29.77,6.2,Calm,Calm,-,N/A,,Mostly Cloudy,0,2013-08-17 12:00:00
7:30 PM,78.8,73.4,83,29.77,6.2,SW,3.5,-,N/A,,Mostly Cloudy,230,2013-08-17 12:30:00
8:00 PM,77.0,73.4,89,29.80,6.2,SW,3.5,-,N/A,,Mostly Cloudy,220,2013-08-17 13:00:00
8:30 PM,77.0,73.4,89,29.80,6.2,SSW,2.3,-,N/A,,Mostly Cloudy,200,2013-08-17 13:30:00
9:00 PM,75.2,73.4,94,29.80,6.2,Calm,Calm,-,N/A,,Scattered Clouds,0,2013-08-17 14:00:00
9:30 PM,75.2,71.6,89,29.83,6.2,Calm,Calm,-,N/A,,Scattered Clouds,0,2013-08-17 14:30:00
10:00 PM,75.2,71.6,89,29.83,6.2,SSE,3.5,-,N/A,,Scattered Clouds,160,2013-08-17 15:00:00
10:30 PM,75.2,71.6,89,29.83,6.2,Calm,Calm,-,N/A,,Scattered Clouds,0,2013-08-17 15:30:00
11:00 PM,75.2,71.6,89,29.83,6.2,SE,2.3,-,N/A,,Scattered Clouds,140,2013-08-17 16:00:00
11:30 PM,73.4,71.6,94,29.86,6.2,Calm,Calm,-,N/A,,Scattered Clouds,0,2013-08-17 16:30:00